Location: *
(51.5000°N, 0.1100°W)
Time: 18:10:10
(UTC+00:00)

Cosmos 1455 Rocket - Pass Details

Date: 25 May 2024
Orbit: 602 x 625 km, 82.5° (Epoch: 16 June)

Event Time Altitude Azimuth Distance (km) Brightness Sun altitude
Rises 03:07:47 0° 352° (N) 2,884 7.1 -6.4°
Reaches altitude 10° 03:10:04 10° 357° (N) 1,979 6.3 -6.1°
Maximum altitude 03:14:21 53° 75° (ENE) 757 4.0 -5.7°
Drops below altitude 10° 03:18:39 10° 153° (SSE) 1,977 5.5 -5.2°
Sets 03:20:55 0° 158° (SSE) 2,882 6.3 -4.9°
